Regional Weather Roundup
Issued by NWS Albany, NY

Home | Current Version | Previous Version | Graphics & Text | Print | Product List | Glossary Off
Versions: 1 2 3 4 5 6 7 8 9 10 11 12 13 14 15 16 17 18 19 20 21 22 23 24 25 26 27 28 29 30 31 32 33 34 35 36 37 38 39 40 41 42 43 44 45 46 47 48 49 50

523
ASUS41 KALY 270210
RWRALY

NEW YORK STATE HOURLY WEATHER ROUNDUP
NATIONAL WEATHER SERVICE ALBANY NY
1000 PM EDT MON SEP 26 2016

NOTE: "FAIR" INDICATES FEW OR NO CLOUDS BELOW 12,000 FEET WITH NO
SIGNIFICANT WEATHER AND/OR NO OBSTRUCTIONS TO VISIBILITY.

NYZ032-033-038>043-046>054-057>066-NYZ062>081-082-084-270300-
EAST


CITY           SKY/WX    TMP DP  RH WIND       PRES   REMARKS
ALBANY         CLOUDY    64  49  57 S12       29.95F
GLENS FALLS    CLOUDY    61  48  62 SW8       29.94F
POUGHKEEPSIE   CLOUDY    64  49  57 SE5       30.02S
NEWBURGH       CLOUDY    66  52  59 SW13      30.04F
MONTGOMERY     CLOUDY    65  51  60 SW10      30.02S
WHITE PLAINS   CLOUDY    66  54  65 VRB5      30.05S
ISLIP          CLOUDY    67  54  63 S12G18    30.06F
NEW YORK CITY  CLOUDY    70  56  61 S16       30.04F
CENTRAL PARK   CLOUDY    67  54  63 VRB5      30.07F
$$

NYZ005>009-017-018-044>046-055-056-270300-
CENTRAL


CITY           SKY/WX    TMP DP  RH WIND       PRES   REMARKS
FULTON         RAIN      62  58  86 S9        29.89S
SYRACUSE       LGT RAIN  61  56  83 S15G23    29.89F
ROME           RAIN      61  57  87 S5        29.93F FOG
ELMIRA         CLOUDY    62  56  80 SW5       29.93S
BINGHAMTON     CLOUDY    58  51  78 S7G17     29.96F
MONTICELLO     CLOUDY    61  50  67 S7        30.04F
$$

NYZ026>034-041>043-087-270300-
NORTH


CITY           SKY/WX    TMP DP  RH WIND       PRES   REMARKS
WATERTOWN      LGT RAIN  61  55  81 S9G18     29.85S
FORT DRUM      NOT AVBL
OGDENSBURG     LGT RAIN  63  55  75 S9        29.83F
MASSENA        CLOUDY    58  52  80 CALM      29.85F
SARANAC LAKE   CLOUDY    57  45  64 SW10      29.89F
PLATTSBURGH    CLOUDY    60  46  59 S7        29.89F
$$

NYZ001>004-010>016-019>021-085-270300-
WEST


CITY           SKY/WX    TMP DP  RH WIND       PRES   REMARKS
NIAGARA FALLS  PTCLDY    56  48  74 SW8       29.90S
BUFFALO        PTCLDY    57  50  77 W7        29.92R
DUNKIRK        MOCLDY    59  57  93 S7        29.93S
JAMESTOWN      MOCLDY    55  54  94 SW8       29.96F
WELLSVILLE     CLOUDY    59  56  89 SW9       29.97S
ROCHESTER      CLOUDY    62  60  93 W9        29.90R
PENN YAN       LGT RAIN  61  58  90 S9        29.93R FOG
$$

             KEY
       WCI = WIND CHILL INDEX
       VSB = VISIBILITY
       HX  = HEAT INDEX
$$




USA.gov is the U.S. government's official web portal to all federal, state and local government web resources and services.